User: anonymous   Login
Location: Gleizolles
(44.4833°N, 6.7667°E)
Time: 13:29:31
(UTC+00:00)
Language:

ARGOS Delta rocket - Orbit

View from above orbital plane
View from above orbital plane
View from above satellite
View from above satellite

Ground track
Ground track

The orbit data is extracted from the following two-line orbital elements,

1 25637U 99008D   20191.83403014 +.00000004 +00000-0 +90035-5 0  9991
2 25637 096.4459 203.5881 0141374 322.0368 211.7987 14.46669534127051
Epoch (UTC): 09 July 2020 20:01:00
Eccentricity: 0.0141374
inclination: 96.4459°
perigee height: 636 km
apogee height: 837 km
right ascension of ascending node: 203.5881°
argument of perigee: 322.0368°
revolutions per day: 14.46669534
mean anomaly at epoch: 211.7987°
orbit number at epoch: 12705

The dashed part of the orbit path shows where the satellite is in the earth's shadow,  

DLR